Location: Newark
(18.4314°N, 64.6231°W)
Time: 23:42:26
(UTC+00:00)

N. Korean satellite - Visible Passes

Search period start: 19 July 2019 00:00
Search period end: 29 July 2019 00:00
Orbit: 456 x 508 km, 97.2° (Epoch: 18 July)

Date Brightness Start Highest point End Pass type
(mag) Time Alt. Az. Time Alt. Az. Time Alt. Az.
20 Jul 9.6 09:22:58 10° NE 09:25:25 17° E 09:27:54 10° SE visible
24 Jul 9.7 09:16:29 10° ENE 09:18:23 13° E 09:20:15 10° SE visible
28 Jul 10.1 09:10:33 10° E 09:11:18 10° E 09:12:02 10° ESE visible
